QPF
0.06 0.06 0.05 0.07 0.09 0.09 0.09 0.09 0.08 0.05 0.03 0.02 0.02 0.02 0.02 0.03 0.03 0.03 0.02 0.02 0.03 0.03 0.04 0.05 0.05 0.04 0.03 0.03 0.03 0.02 0.03 0.03 0.05 0.05 0.05 0.07 0.08 0.10
0.05 0.04 0.04 0.05 0.04 0.06 0.07 0.07 0.07 0.06 0.04 0.02 0.02 0.02 0.02 0.03 0.03 0.03 0.02 0.02 0.03 0.04 0.04 0.03 0.04 0.06 0.06 0.06 0.05 0.04 0.03 0.03 0.03 0.04 0.04 0.05 0.06 0.06
0.04 0.04 0.04 0.03 0.03 0.03 0.04 0.04 0.05 0.05 0.04 0.02 0.02 0.03 0.03 0.04 0.04 0.04 0.03 0.03 0.03 0.03 0.04 0.04 0.03 0.03 0.05 0.06 0.07 0.06 0.05 0.04 0.04 0.04 0.04 0.04 0.04 0.05
0.03 0.03 0.03 0.03 0.02 0.03 0.03 0.02 0.03 0.04 0.05 0.04 0.03 0.03 0.02 0.02 0.03 0.04 0.04 0.04 0.03 0.03 0.04 0.04 0.03 0.03 0.03 0.04 0.05 0.06 0.05 0.04 0.03 0.03 0.03 0.04 0.04 0.04
0.03 0.02 0.03 0.03 0.02 0.03 0.03 0.03 0.03 0.04 0.04 0.04 0.03 0.02 0.02 0.02 0.02 0.03 0.03 0.04 0.03 0.03 0.03 0.02 0.02 0.02 0.02 0.03 0.03 0.03 0.03 0.04 0.03 0.03 0.03 0.03 0.03 0.03
0.04 0.04 0.03 0.03 0.03 0.02 0.03 0.03 0.04 0.05 0.05 0.04 0.02 0.02 0.01 0.01 0.02 0.02 0.02 0.03 0.03 0.02 0.02 0.01 0.01 0.01 0.02 0.02 0.03 0.03 0.03 0.03 0.03 0.03 0.03 0.03 0.03 0.03
0.05 0.05 0.03 0.04 0.04 0.03 0.03 0.03 0.04 0.05 0.05 0.04 0.04 0.03 0.02 0.01 0.01 0.01 0.02 0.02 0.02 0.01 0.01 0.01 0.01 0.01 0.01 0.01 0.02 0.02 0.03 0.04 0.04 0.04 0.03 0.03 0.03 0.03
0.06 0.05 0.04 0.04 0.04 0.04 0.04 0.04 0.05 0.04 0.05 0.05 0.04 0.03 0.02 0.02 0.02 0.02 0.03 0.03 0.02 0.01 0.01 0.01 0.01 0.01 0.01 0.01 0.02 0.02 0.03 0.03 0.03 0.03 0.03 0.03 0.03 0.03
0.06 0.07 0.06 0.04 0.05 0.05 0.05 0.04 0.04 0.04 0.04 0.05 0.04 0.03 0.02 0.03 0.03 0.04 0.05 0.04 0.04 0.04 0.04 0.03 0.02 0.01 0.01 0.01 0.02 0.02 0.02 0.03 0.04 0.04 0.03 0.03 0.03 0.04
0.08 0.07 0.06 0.06 0.06 0.06 0.04 0.03 0.03 0.02 0.03 0.03 0.03 0.02 0.03 0.03 0.05 0.05 0.06 0.06 0.05 0.05 0.04 0.04 0.02 0.02 0.02 0.01 0.02 0.02 0.03 0.04 0.05 0.05 0.05 0.05 0.03 0.03
0.06 0.07 0.07 0.06 0.06 0.05 0.04 0.03 0.03 0.02 0.03 0.03 0.03 0.02 0.03 0.04 0.05 0.05 0.04 0.04 0.03 0.02 0.02 0.02 0.01 0.02 0.02 0.02 0.01 0.01 0.02 0.03 0.04 0.05 0.05 0.05 0.04 0.04
0.07 0.08 0.09 0.07 0.06 0.05 0.04 0.03 0.02 0.02 0.02 0.02 0.02 0.02 0.03 0.04 0.06 0.05 0.03 0.03 0.02 0.01 0.01 0.01 0.01 0.01 0.02 0.01 0.01 0.02 0.02 0.03 0.04 0.04 0.05 0.06 0.06 0.05
0.05 0.06 0.06 0.06 0.05 0.05 0.04 0.03 0.02 0.02 0.02 0.02 0.03 0.03 0.03 0.03 0.04 0.03 0.03 0.03 0.03 0.02 0.02 0.02 0.02 0.02 0.02 0.02 0.01 0.02 0.02 0.02 0.03 0.05 0.06 0.06 0.06 0.05
0.03 0.04 0.04 0.04 0.04 0.05 0.04 0.03 0.03 0.03 0.02 0.03 0.03 0.03 0.03 0.03 0.03 0.03 0.03 0.04 0.03 0.03 0.02 0.02 0.02 0.02 0.03 0.03 0.02 0.02 0.02 0.03 0.03 0.03 0.05 0.07 0.06 0.06
0.03 0.03 0.02 0.03 0.04 0.03 0.04 0.04 0.04 0.03 0.03 0.02 0.02 0.02 0.02 0.03 0.03 0.04 0.05 0.05 0.05 0.04 0.03 0.03 0.04 0.04 0.04 0.04 0.03 0.04 0.04 0.04 0.03 0.03 0.03 0.04 0.05 0.06
0.01 0.02 0.02 0.03 0.02 0.02 0.03 0.03 0.03 0.03 0.03 0.02 0.02 0.03 0.03 0.03 0.03 0.05 0.06 0.07 0.07 0.06 0.04 0.04 0.04 0.04 0.04 0.04 0.04 0.04 0.03 0.03 0.03 0.04 0.03 0.03 0.03 0.04
0.01 0.01 0.01 0.01 0.01 0.01 0.01 0.01 0.02 0.02 0.02 0.02 0.03 0.03 0.04 0.06 0.07 0.07 0.07 0.06 0.05 0.04 0.04 0.04 0.04 0.04 0.04 0.04 0.04 0.05 0.05 0.04 0.03 0.03 0.03 0.02 0.02 0.02
0.02 0.01 0.01 0.01 0.01 0.01 0.01 0.01 0.01 0.02 0.03 0.03 0.04 0.04 0.05 0.06 0.07 0.06 0.05 0.04 0.04 0.03 0.04 0.04 0.04 0.04 0.04 0.04 0.05 0.07 0.08 0.06 0.05 0.05 0.04 0.02 0.02 0.02
0.01 0.01 0.01 0.01 0.01 0.01 0.01 0.01 0.01 0.02 0.03 0.03 0.03 0.03 0.03 0.04 0.05 0.06 0.05 0.05 0.05 0.04 0.04 0.04 0.05 0.06 0.06 0.05 0.06 0.09 0.10 0.07 0.06 0.06 0.05 0.04 0.03 0.02
0.01 0.01 0.01 0.01 0.01 0.01 0.01 0.01 0.01 0.01 0.02 0.02 0.03 0.03 0.03 0.04 0.06 0.07 0.06 0.05 0.04 0.04 0.05 0.04 0.05 0.05 0.05 0.05 0.06 0.09 0.10 0.07 0.04 0.04 0.04 0.05 0.05 0.04
0.00 0.00 0.01 0.01 0.01 0.01 0.01 0.01 0.01 0.01 0.02 0.02 0.02 0.03 0.04 0.05 0.06 0.05 0.05 0.06 0.06 0.05 0.05 0.05 0.05 0.06 0.05 0.05 0.06 0.08 0.08 0.08 0.06 0.04 0.05 0.06 0.06 0.05
0.01 0.01 0.01 0.01 0.01 0.01 0.01 0.01 0.01 0.01 0.01 0.02 0.01 0.02 0.03 0.03 0.04 0.04 0.04 0.04 0.04 0.05 0.05 0.05 0.05 0.04 0.04 0.06 0.07 0.07 0.07 0.05 0.05 0.05 0.04 0.05 0.05 0.04
0.03 0.03 0.02 0.02 0.01 0.01 0.01 0.01 0.02 0.02 0.02 0.02 0.02 0.01 0.01 0.02 0.02 0.03 0.04 0.04 0.04 0.04 0.06 0.06 0.05 0.05 0.05 0.06 0.07 0.07 0.07 0.06 0.04 0.04 0.03 0.04 0.03 0.02
MSLP
1015.06 1015.25 1015.52 1015.85 1016.20 1016.52 1016.77 1016.93 1016.99 1016.95 1016.83 1016.64 1016.42 1016.18 1015.95 1015.72 1015.52 1015.33 1015.16 1015.01 1014.88 1014.76 1014.67 1014.59 1014.53 1014.49 1014.46 1014.44 1014.44 1014.44 1014.44 1014.45 1014.45 1014.45 1014.45 1014.42 1014.37 1014.29
1014.87 1015.04 1015.28 1015.58 1015.90 1016.20 1016.47 1016.67 1016.79 1016.82 1016.78 1016.68 1016.53 1016.34 1016.14 1015.92 1015.71 1015.51 1015.32 1015.14 1014.99 1014.86 1014.76 1014.68 1014.63 1014.60 1014.58 1014.56 1014.55 1014.53 1014.52 1014.50 1014.49 1014.47 1014.44 1014.40 1014.33 1014.24
1014.74 1014.89 1015.08 1015.33 1015.60 1015.88 1016.14 1016.36 1016.53 1016.64 1016.69 1016.67 1016.60 1016.49 1016.34 1016.15 1015.95 1015.74 1015.52 1015.32 1015.13 1014.98 1014.85 1014.76 1014.69 1014.64 1014.61 1014.58 1014.56 1014.53 1014.49 1014.46 1014.42 1014.38 1014.33 1014.27 1014.19 1014.08
1014.64 1014.76 1014.92 1015.11 1015.34 1015.58 1015.82 1016.05 1016.26 1016.43 1016.56 1016.64 1016.66 1016.63 1016.54 1016.40 1016.22 1016.01 1015.79 1015.56 1015.34 1015.14 1014.98 1014.85 1014.74 1014.66 1014.60 1014.55 1014.50 1014.45 1014.40 1014.34 1014.28 1014.22 1014.15 1014.07 1013.97 1013.84
1014.54 1014.65 1014.77 1014.92 1015.09 1015.29 1015.52 1015.75 1015.98 1016.21 1016.40 1016.56 1016.67 1016.72 1016.71 1016.63 1016.49 1016.30 1016.07 1015.83 1015.59 1015.36 1015.15 1014.98 1014.83 1014.71 1014.60 1014.51 1014.42 1014.34 1014.26 1014.18 1014.10 1014.01 1013.92 1013.82 1013.70 1013.55
1014.41 1014.51 1014.61 1014.72 1014.86 1015.03 1015.22 1015.45 1015.70 1015.95 1016.20 1016.42 1016.61 1016.73 1016.79 1016.77 1016.69 1016.53 1016.33 1016.10 1015.85 1015.60 1015.36 1015.15 1014.95 1014.78 1014.62 1014.48 1014.35 1014.23 1014.11 1014.00 1013.90 1013.79 1013.69 1013.56 1013.42 1013.25
1014.23 1014.32 1014.41 1014.50 1014.61 1014.75 1014.92 1015.14 1015.38 1015.65 1015.93 1016.19 1016.43 1016.61 1016.73 1016.78 1016.76 1016.66 1016.50 1016.30 1016.06 1015.82 1015.57 1015.32 1015.09 1014.87 1014.67 1014.48 1014.30 1014.13 1013.98 1013.84 1013.71 1013.58 1013.46 1013.32 1013.16 1012.97
1013.95 1014.06 1014.15 1014.23 1014.33 1014.45 1014.60 1014.79 1015.03 1015.29 1015.57 1015.85 1016.12 1016.34 1016.51 1016.62 1016.66 1016.62 1016.52 1016.37 1016.17 1015.95 1015.71 1015.46 1015.21 1014.96 1014.71 1014.48 1014.25 1014.04 1013.86 1013.69 1013.53 1013.39 1013.25 1013.10 1012.93 1012.72
1013.58 1013.70 1013.80 1013.89 1013.99 1014.10 1014.24 1014.41 1014.62 1014.87 1015.13 1015.41 1015.68 1015.92 1016.13 1016.28 1016.37 1016.39 1016.36 1016.27 1016.13 1015.95 1015.74 1015.50 1015.25 1014.99 1014.72 1014.45 1014.19 1013.95 1013.73 1013.54 1013.36 1013.20 1013.05 1012.89 1012.71 1012.50
1013.11 1013.25 1013.37 1013.47 1013.58 1013.69 1013.83 1013.98 1014.17 1014.39 1014.63 1014.88 1015.14 1015.38 1015.60 1015.78 1015.91 1015.99 1016.02 1015.99 1015.91 1015.79 1015.63 1015.42 1015.19 1014.93 1014.66 1014.37 1014.10 1013.83 1013.59 1013.38 1013.19 1013.01 1012.85 1012.68 1012.50 1012.28
1012.54 1012.70 1012.84 1012.97 1013.10 1013.22 1013.36 1013.51 1013.68 1013.87 1014.08 1014.31 1014.54 1014.77 1014.98 1015.17 1015.33 1015.45 1015.53 1015.56 1015.54 1015.48 1015.36 1015.20 1015.00 1014.76 1014.50 1014.22 1013.94 1013.67 1013.42 1013.19 1012.99 1012.80 1012.63 1012.45 1012.26 1012.03
1011.90 1012.08 1012.24 1012.40 1012.54 1012.69 1012.83 1012.99 1013.15 1013.32 1013.51 1013.71 1013.92 1014.13 1014.33 1014.52 1014.69 1014.84 1014.95 1015.02 1015.05 1015.03 1014.96 1014.85 1014.68 1014.48 1014.24 1013.98 1013.71 1013.45 1013.20 1012.97 1012.75 1012.56 1012.38 1012.19 1011.98 1011.73
1011.20 1011.38 1011.56 1011.74 1011.91 1012.07 1012.24 1012.40 1012.57 1012.74 1012.92 1013.11 1013.30 1013.50 1013.69 1013.87 1014.05 1014.20 1014.33 1014.42 1014.48 1014.49 1014.46 1014.38 1014.26 1014.09 1013.89 1013.66 1013.42 1013.17 1012.93 1012.70 1012.49 1012.29 1012.09 1011.88 1011.65 1011.39
1010.45 1010.63 1010.82 1011.00 1011.19 1011.37 1011.56 1011.74 1011.92 1012.10 1012.29 1012.48 1012.68 1012.87 1013.06 1013.25 1013.42 1013.57 1013.70 1013.80 1013.86 1013.90 1013.89 1013.84 1013.75 1013.62 1013.45 1013.27 1013.06 1012.84 1012.62 1012.41 1012.20 1011.99 1011.77 1011.54 1011.29 1011.00
1009.67 1009.83 1010.00 1010.19 1010.37 1010.57 1010.76 1010.96 1011.16 1011.37 1011.59 1011.80 1012.02 1012.23 1012.43 1012.62 1012.80 1012.94 1013.07 1013.16 1013.23 1013.26 1013.26 1013.23 1013.17 1013.07 1012.95 1012.80 1012.64 1012.46 1012.27 1012.08 1011.88 1011.66 1011.43 1011.18 1010.90 1010.59
1008.84 1008.98 1009.13 1009.29 1009.46 1009.65 1009.84 1010.05 1010.28 1010.51 1010.76 1011.02 1011.28 1011.52 1011.76 1011.97 1012.15 1012.31 1012.43 1012.52 1012.58 1012.61 1012.61 1012.59 1012.54 1012.48 1012.40 1012.30 1012.18 1012.04 1011.89 1011.72 1011.53 1011.32 1011.08 1010.80 1010.50 1010.15
1007.99 1008.08 1008.19 1008.31 1008.44 1008.60 1008.78 1008.99 1009.22 1009.49 1009.78 1010.08 1010.39 1010.69 1010.98 1011.23 1011.45 1011.62 1011.75 1011.84 1011.90 1011.92 1011.93 1011.91 1011.88 1011.85 1011.80 1011.75 1011.68 1011.59 1011.48 1011.34 1011.17 1010.96 1010.71 1010.42 1010.08 1009.71
1007.12 1007.16 1007.20 1007.26 1007.34 1007.44 1007.58 1007.76 1007.99 1008.27 1008.59 1008.95 1009.32 1009.69 1010.04 1010.35 1010.62 1010.84 1011.00 1011.11 1011.18 1011.21 1011.22 1011.22 1011.21 1011.20 1011.19 1011.18 1011.15 1011.11 1011.04 1010.93 1010.78 1010.58 1010.32 1010.01 1009.66 1009.26
1006.25 1006.22 1006.20 1006.18 1006.17 1006.20 1006.27 1006.41 1006.61 1006.88 1007.22 1007.62 1008.05 1008.49 1008.91 1009.31 1009.65 1009.94 1010.15 1010.31 1010.41 1010.47 1010.50 1010.52 1010.54 1010.56 1010.58 1010.60 1010.62 1010.62 1010.58 1010.50 1010.37 1010.17 1009.92 1009.59 1009.21 1008.79
1005.40 1005.31 1005.21 1005.10 1004.99 1004.92 1004.91 1004.97 1005.12 1005.36 1005.70 1006.12 1006.59 1007.10 1007.61 1008.10 1008.53 1008.91 1009.20 1009.43 1009.59 1009.70 1009.78 1009.83 1009.88 1009.93 1009.99 1010.05 1010.09 1010.12 1010.11 1010.06 1009.94 1009.75 1009.49 1009.15 1008.75 1008.30
1004.63 1004.48 1004.29 1004.07 1003.86 1003.68 1003.55 1003.52 1003.59 1003.78 1004.09 1004.51 1005.02 1005.59 1006.18 1006.76 1007.30 1007.78 1008.18 1008.50 1008.74 1008.93 1009.06 1009.17 1009.26 1009.35 1009.44 1009.52 1009.59 1009.64 1009.65 1009.61 1009.50 1009.31 1009.04 1008.69 1008.27 1007.79
1003.99 1003.77 1003.50 1003.18 1002.85 1002.55 1002.30 1002.15 1002.13 1002.24 1002.51 1002.91 1003.43 1004.04 1004.70 1005.37 1006.01 1006.60 1007.11 1007.55 1007.89 1008.17 1008.38 1008.55 1008.69 1008.82 1008.93 1009.04 1009.13 1009.19 1009.21 1009.17 1009.05 1008.86 1008.58 1008.22 1007.78 1007.28
1003.53 1003.26 1002.91 1002.50 1002.06 1001.63 1001.25 1000.98 1000.84 1000.87 1001.06 1001.43 1001.94 1002.57 1003.28 1004.02 1004.76 1005.46 1006.08 1006.63 1007.09 1007.46 1007.75 1007.99 1008.18 1008.35 1008.49 1008.61 1008.70 1008.77 1008.78 1008.74 1008.62 1008.42 1008.13 1007.76 1007.30 1006.78
Thickness
5737 5736 5735 5734 5732 5731 5730 5727 5723 5721 5724 5728 5730 5732 5732 5732 5732 5731 5731 5731 5731 5730 5730 5729 5728 5728 5727 5726 5725 5724 5723 5721 5719 5718 5716 5715 5714 5712
5734 5733 5732 5731 5730 5728 5727 5726 5724 5720 5719 5724 5724 5726 5727 5728 5728 5727 5727 5727 5727 5727 5726 5725 5725 5724 5724 5723 5722 5721 5719 5717 5716 5714 5713 5712 5710 5709
5731 5730 5729 5728 5726 5725 5724 5722 5720 5719 5716 5720 5721 5722 5721 5721 5722 5722 5722 5722 5722 5722 5721 5721 5720 5720 5719 5718 5718 5716 5715 5713 5711 5710 5709 5708 5706 5705
5727 5726 5725 5724 5722 5721 5719 5718 5716 5715 5713 5713 5715 5715 5715 5716 5715 5715 5715 5716 5715 5716 5716 5716 5715 5715 5714 5713 5712 5711 5710 5708 5707 5706 5705 5703 5701 5700
5723 5722 5720 5718 5717 5716 5715 5713 5712 5711 5710 5708 5708 5709 5709 5709 5708 5708 5708 5708 5708 5709 5710 5710 5710 5709 5709 5708 5707 5706 5705 5703 5702 5700 5699 5698 5696 5695
5719 5717 5716 5714 5712 5711 5710 5708 5707 5705 5703 5702 5702 5702 5701 5701 5700 5699 5700 5700 5700 5702 5702 5703 5703 5703 5703 5702 5701 5700 5699 5697 5696 5695 5694 5692 5691 5690
5713 5712 5711 5710 5709 5707 5705 5703 5701 5698 5697 5695 5695 5694 5693 5692 5692 5692 5691 5692 5693 5694 5694 5695 5695 5696 5696 5696 5695 5694 5693 5692 5691 5689 5688 5687 5686 5684
5707 5706 5706 5704 5703 5701 5699 5698 5696 5693 5691 5689 5688 5687 5687 5686 5685 5684 5683 5683 5683 5686 5685 5686 5687 5688 5689 5689 5689 5688 5687 5686 5685 5683 5682 5681 5680 5678
5701 5700 5699 5698 5696 5694 5693 5692 5690 5689 5688 5685 5683 5683 5681 5680 5678 5677 5676 5676 5677 5678 5677 5678 5680 5680 5682 5683 5682 5681 5680 5680 5679 5677 5676 5674 5673 5672
5694 5693 5692 5690 5689 5687 5686 5684 5683 5683 5681 5680 5679 5678 5677 5675 5673 5671 5669 5668 5669 5669 5669 5669 5672 5673 5675 5675 5675 5675 5674 5673 5672 5671 5670 5668 5666 5664
5687 5685 5684 5683 5681 5680 5678 5677 5676 5676 5675 5674 5673 5672 5670 5668 5666 5663 5661 5660 5661 5662 5661 5661 5664 5665 5666 5667 5668 5668 5667 5666 5665 5664 5662 5660 5658 5656
5679 5678 5676 5674 5673 5672 5670 5669 5668 5668 5667 5666 5664 5663 5662 5661 5659 5657 5656 5653 5653 5654 5655 5653 5654 5654 5656 5659 5659 5660 5659 5658 5657 5655 5654 5652 5649 5647
5670 5669 5668 5666 5665 5663 5662 5661 5661 5660 5659 5657 5656 5654 5653 5653 5651 5650 5649 5647 5646 5646 5647 5645 5645 5644 5645 5647 5649 5649 5649 5649 5648 5646 5644 5643 5642 5640
5662 5660 5659 5657 5656 5655 5653 5652 5651 5651 5650 5648 5647 5647 5646 5644 5643 5642 5641 5640 5639 5639 5639 5636 5636 5636 5635 5636 5637 5639 5639 5638 5638 5637 5636 5634 5633 5632
5653 5651 5649 5648 5647 5646 5645 5644 5642 5642 5641 5640 5639 5639 5638 5636 5635 5634 5633 5632 5631 5631 5631 5629 5629 5628 5627 5627 5628 5628 5627 5628 5627 5627 5626 5625 5624 5623
5644 5642 5640 5639 5638 5637 5636 5635 5634 5632 5631 5631 5630 5629 5628 5627 5626 5625 5625 5624 5623 5624 5624 5623 5622 5621 5620 5620 5620 5619 5619 5618 5618 5617 5616 5615 5614 5613
5635 5633 5631 5630 5629 5628 5627 5625 5624 5623 5622 5622 5621 5620 5619 5618 5617 5616 5615 5614 5614 5614 5615 5615 5614 5613 5613 5612 5611 5612 5610 5610 5609 5607 5606 5606 5605 5604
5626 5624 5623 5621 5620 5618 5617 5616 5615 5614 5614 5613 5612 5611 5610 5610 5608 5607 5606 5605 5605 5606 5606 5606 5605 5604 5604 5603 5602 5602 5602 5601 5600 5598 5597 5597 5596 5595
5618 5617 5614 5613 5611 5610 5609 5608 5607 5606 5605 5604 5603 5603 5602 5601 5600 5598 5597 5597 5597 5597 5598 5597 5596 5596 5596 5596 5595 5593 5593 5592 5591 5589 5588 5587 5587 5587
5610 5608 5606 5605 5604 5602 5601 5600 5599 5598 5597 5596 5595 5594 5594 5593 5592 5591 5590 5589 5589 5589 5589 5589 5588 5587 5586 5586 5585 5584 5583 5582 5581 5580 5579 5578 5577 5576
5603 5601 5599 5598 5596 5595 5594 5593 5591 5590 5589 5588 5587 5586 5586 5585 5584 5584 5583 5581 5581 5581 5581 5581 5579 5578 5576 5575 5574 5574 5573 5571 5571 5570 5569 5568 5567 5567
5596 5594 5593 5591 5590 5589 5587 5586 5584 5583 5582 5581 5580 5579 5578 5577 5577 5576 5575 5574 5573 5573 5572 5571 5569 5568 5568 5568 5567 5566 5564 5562 5560 5559 5558 5558 5557 5558
5590 5588 5586 5584 5582 5581 5580 5578 5577 5576 5575 5573 5573 5572 5571 5570 5569 5568 5567 5566 5565 5564 5563 5562 5561 5560 5559 5558 5557 5556 5555 5553 5552 5551 5549 5547 5546 5546